SBPR weather

Carlos Prates Airport
Belo Horizonte, Minas Gerais, Brazil

Public forecast

Using degrees Celsius for public forecast. Weather courtesy of forecast.io.

Current aviation weather report (METAR) for Carlos Prates Airport

Report is more than 6 hours old.

Retrieved 2020/01/22 21:00 UTC (10 hours ago):

SBPR 222100Z 09006KT 9999 SCT030 FEW035TCU BKN090 25/19 Q1011

Closest aviation forecast (TAF) to Carlos Prates Airport

Forecast is more than 12 hours old.

Closest forecast is Pampulha - Carlos Drummond de Andrade Airport, 4.2 nm (7.7 km) NNE. Retrieved 2012/03/26 18:12 UTC (8 years ago):

TAF SBBH 261639Z 2618/2706 09005KT 9999 SCT030 TX28/2618Z TN20/2705Z PROB30 2619/2624 8000 TSRA BKN035 FEW045CB RMK PGG